Date,TemperatureHighF,TemperatureAvgF,TemperatureLowF,DewpointHighF,DewpointAvgF,DewpointLowF,HumidityHigh,HumidityAvg,HumidityLow,PressureMaxIn,PressureMinIn,WindSpeedMaxMPH,WindSpeedAvgMPH,GustSpeedMaxMPH,PrecipitationSumIn
2013-1-1,44,40,36,41,36,30,92,87,76,30.10,29.96,8,1,8,0.48
2013-1-2,42,37,35,40,34,32,91,88,84,30.15,29.99,5,1,8,0.02
2013-1-3,44,37,32,34,30,24,87,77,55,30.33,30.13,4,0,4,0.00
2013-1-4,41,33,27,28,24,21,82,71,54,30.40,30.31,5,1,5,0.00
2013-1-5,47,36,26,32,26,20,81,69,50,30.39,30.22,5,1,5,0.05
2013-1-6,44,39,36,37,34,30,91,82,73,30.28,30.11,7,2,7,0.04
2013-1-7,52,38,30,37,29,24,80,70,51,30.40,30.27,6,1,6,0.00
2013-1-8,58,41,30,40,30,24,81,66,49,30.40,30.27,5,1,5,0.00
2013-1-9,48,44,41,44,38,29,89,77,62,30.46,30.29,4,1,4,0.07
2013-1-10,61,53,47,54,48,44,90,83,75,30.46,30.18,6,1,6,0.00
2013-1-11,67,60,55,61,55,49,91,84,77,30.18,30.06,7,2,7,0.04
2013-1-12,71,64,60,64,60,57,92,87,76,30.16,30.02,4,1,6,0.02
2013-1-13,66,61,55,59,56,52,92,85,76,30.07,29.97,6,1,6,0.68
2013-1-14,59,46,39,57,44,36,92,91,90,30.29,30.02,6,1,6,1.97
2013-1-15,44,42,40,42,40,38,93,93,92,30.18,29.96,5,0,5,2.81
2013-1-16,49,45,42,47,43,40,94,93,93,30.06,29.90,6,1,6,0.78
2013-1-17,43,37,32,41,35,29,93,92,91,30.31,29.94,8,1,8,1.23
2013-1-18,44,33,27,37,30,25,92,87,72,30.51,30.31,5,0,5,0.36
2013-1-19,48,36,27,37,30,24,90,82,66,30.40,30.14,4,1,4,0.14
2013-1-20,54,43,36,38,32,27,77,66,52,30.18,30.10,7,2,7,0.00
2013-1-21,44,35,28,27,15,11,64,45,35,30.16,30.06,10,4,10,0.00
2013-1-22,34,26,20,12,5,1,54,42,28,30.31,30.14,8,3,8,0.00
2013-1-23,44,33,24,28,14,2,63,46,35,30.32,30.08,9,2,9,0.00
2013-1-24,40,33,24,31,16,6,69,52,35,30.37,30.06,8,2,11,0.00
2013-1-25,33,29,23,31,21,6,92,74,47,30.32,30.06,3,0,3,0.00
2013-1-26,42,35,30,34,30,25,92,83,71,30.34,30.14,5,1,5,0.11
2013-1-27,46,36,27,38,30,23,86,79,68,30.40,30.28,5,0,5,0.03
2013-1-28,56,47,39,47,41,34,87,79,64,30.33,30.20,7,1,7,0.02
2013-1-29,67,56,47,56,50,44,91,80,66,30.21,29.89,4,1,5,0.01
2013-1-30,66,56,42,58,51,36,92,83,72,29.89,29.51,15,3,15,2.42
2013-1-31,42,36,32,36,26,22,86,66,49,30.00,29.63,15,5,15,0.01
2013-2-1,40,27,17,31,15,7,85,61,43,30.35,29.93,14,3,14,0.00
2013-2-2,34,27,22,30,21,13,87,76,63,30.31,30.03,5,1,5,0.00
2013-2-3,40,34,30,34,28,21,92,80,65,30.13,29.95,11,3,11,0.10
2013-2-4,45,35,27,31,26,20,82,70,54,30.11,29.93,4,1,4,0.00
2013-2-5,57,46,40,41,35,29,74,66,53,29.99,29.91,8,2,8,0.00
2013-2-6,62,47,38,38,32,28,74,58,35,30.18,29.99,6,1,6,0.00
2013-2-7,57,48,42,40,34,28,78,60,50,30.13,29.91,8,2,8,0.00
2013-2-8,52,44,35,46,37,27,92,77,59,30.24,29.88,10,2,10,0.09
2013-2-9,58,40,29,35,27,23,79,62,40,30.32,30.18,6,1,6,0.00
2013-2-10,61,47,39,40,31,24,82,56,32,30.21,29.96,8,1,8,0.12
2013-2-11,55,50,44,51,42,31,93,77,57,30.09,29.95,9,2,9,0.02
2013-2-12,52,45,39,36,31,27,72,57,44,30.15,29.85,7,1,7,0.01
2013-2-13,46,42,36,43,37,32,92,84,71,29.95,29.64,9,2,9,0.20
2013-2-14,54,42,34,37,33,30,87,72,49,30.04,29.94,6,1,6,0.00
2013-2-15,55,42,35,40,34,29,82,74,52,30.06,29.96,8,1,10,0.07
2013-2-16,37,31,26,29,22,11,81,69,46,30.04,29.93,9,2,9,0.00
2013-2-17,44,30,23,18,13,10,65,50,29,30.19,30.04,8,2,8,0.00
2013-2-18,62,41,27,36,23,12,57,49,36,30.24,29.94,8,2,8,0.00
2013-2-19,54,43,35,40,29,16,91,62,30,30.10,29.88,13,4,13,0.24
2013-2-20,41,34,28,19,16,13,63,49,33,30.17,30.10,5,2,7,0.00
2013-2-21,47,29,26,26,16,14,63,56,43,30.16,30.04,4,0,4,0.00
2013-2-22,54,50,44,46,44,39,83,78,72,30.06,29.99,4,1,4,0.00
2013-2-23,56,48,45,49,44,41,90,85,75,30.02,29.85,5,1,5,0.09
2013-2-24,61,44,35,41,30,24,86,61,37,30.07,29.89,4,1,7,0.00
2013-2-25,66,45,35,39,29,23,63,54,36,30.05,29.83,8,2,8,0.00
2013-2-26,61,49,42,50,40,33,87,73,50,29.83,29.45,15,5,15,0.32
2013-2-27,47,40,38,35,33,32,82,76,62,29.84,29.68,10,4,10,0.02
2013-2-28,40,36,34,32,28,25,86,73,59,29.97,29.78,8,4,8,0.00
2013-3-1,41,36,34,34,31,28,85,80,72,29.97,29.91,5,2,5,0.03
2013-3-2,40,34,29,33,27,21,87,77,64,30.03,29.90,11,2,11,0.00
2013-3-3,34,29,24,22,19,16,75,65,56,30.07,30.01,6,2,6,0.00
2013-3-4,51,37,24,27,22,16,73,55,34,30.16,29.99,5,1,5,0.00
2013-3-5,47,41,33,44,33,23,92,76,49,30.02,29.62,12,3,12,1.50
2013-3-6,33,31,28,28,27,22,91,85,74,30.23,29.81,10,2,10,0.01
2013-3-7,36,33,31,30,28,27,86,81,76,30.33,30.20,4,0,4,0.01
2013-3-8,59,39,29,38,28,23,80,66,42,30.39,30.28,7,1,7,0.00
2013-3-9,66,47,32,38,31,24,75,55,33,30.29,30.16,5,1,5,0.00
2013-3-10,72,57,46,42,37,32,62,47,32,30.16,30.00,5,1,5,0.00
2013-3-11,64,55,49,51,44,34,89,67,46,30.01,29.76,10,2,10,0.64
2013-3-12,57,44,38,45,35,30,90,73,44,30.08,29.86,6,2,6,0.13
2013-3-13,44,39,32,30,26,18,74,60,43,30.27,30.04,12,3,12,0.00
2013-3-14,49,36,26,24,19,16,66,50,36,30.35,30.21,5,2,5,0.00
2013-3-15,68,49,34,44,33,20,71,55,39,30.23,29.89,8,2,8,0.00
2013-3-16,76,64,58,51,46,42,59,52,41,29.92,29.78,12,4,12,0.00
2013-3-17,72,62,54,52,48,45,75,60,40,29.98,29.84,9,2,9,0.00
2013-3-18,61,52,49,52,46,42,90,81,68,29.92,29.78,7,2,7,1.46
2013-3-19,61,48,38,48,31,14,92,58,20,30.12,29.83,10,3,10,0.01
2013-3-20,55,43,34,28,19,15,63,40,23,30.12,29.86,12,2,12,0.00
2013-3-21,47,32,24,19,12,9,57,45,28,30.00,29.92,9,3,9,0.00
2013-3-22,44,35,25,26,17,11,60,48,35,30.06,29.98,5,1,5,0.00
2013-3-23,53,44,39,40,33,25,77,64,54,30.02,29.77,5,1,5,0.00
2013-3-24,55,47,41,51,43,34,89,84,68,29.79,29.38,13,2,13,1.04
2013-3-25,41,34,30,34,29,28,91,83,72,29.97,29.57,13,5,13,0.01
2013-3-26,38,33,30,32,29,28,90,84,73,30.24,29.97,6,2,6,0.04
2013-3-27,52,37,32,32,28,23,83,69,44,30.31,30.22,12,2,12,0.01
2013-3-28,61,42,30,32,26,22,77,55,27,30.33,30.23,9,1,9,0.00
2013-3-29,49,41,34,37,30,22,84,66,44,30.33,30.22,6,1,6,0.11
2013-3-30,60,49,41,47,41,36,86,76,59,30.23,30.01,5,1,5,0.05
2013-3-31,59,53,48,53,49,43,93,86,77,30.01,29.86,9,2,9,0.43
2013-4-1,62,52,42,50,42,31,92,73,46,30.06,29.90,10,3,10,0.00
2013-4-2,58,46,36,34,25,21,62,47,25,30.21,30.06,7,2,7,0.00
2013-4-3,58,47,36,28,23,18,51,40,30,30.28,30.18,9,1,9,0.00
2013-4-4,46,42,39,36,30,20,86,65,35,30.18,29.97,8,2,8,0.60
2013-4-5,69,49,39,44,38,35,89,70,37,30.09,29.96,7,1,7,0.02
2013-4-6,71,57,42,43,38,32,73,51,32,30.19,30.07,6,1,6,0.00
2013-4-7,77,62,52,48,41,34,54,47,35,30.16,30.05,11,2,11,0.00
2013-4-8,77,65,54,55,48,41,66,54,41,30.11,30.02,11,2,11,0.00
2013-4-9,84,69,58,59,53,47,72,57,42,30.20,30.05,8,2,8,0.00
2013-4-10,86,72,60,61,56,51,76,58,41,30.13,29.90,8,2,8,0.00
2013-4-11,84,72,61,60,55,53,85,58,37,29.93,29.67,12,1,12,0.66
2013-4-12,65,58,52,57,48,37,91,70,43,29.95,29.62,10,3,10,0.33
2013-4-13,72,58,46,43,39,35,74,51,30,30.07,29.95,8,1,8,0.00
2013-4-14,74,60,49,48,42,34,70,51,37,30.06,29.95,8,1,8,0.02
2013-4-15,79,65,54,58,52,47,81,66,48,30.11,29.93,6,1,6,0.00
2013-4-16,83,69,56,63,57,50,83,66,49,30.25,30.11,6,1,6,0.00
2013-4-17,71,65,61,60,59,57,89,82,69,30.31,30.08,7,1,7,0.24
2013-4-18,84,69,59,66,58,53,91,70,40,30.08,29.85,6,1,6,0.00
2013-4-19,72,59,45,60,50,33,90,74,60,30.06,29.71,10,3,10,0.86
2013-4-20,62,48,38,37,33,30,74,57,34,30.28,30.06,5,1,5,0.00
2013-4-21,68,54,41,42,35,28,62,49,35,30.39,30.26,5,1,5,0.00
2013-4-22,72,58,46,47,40,35,67,52,39,30.34,30.15,5,1,5,0.00
2013-4-23,74,60,48,50,41,32,61,50,41,30.23,30.03,6,1,6,0.00
2013-4-24,72,59,46,59,50,41,88,72,54,30.23,29.99,10,2,10,0.23
2013-4-25,65,52,41,43,38,33,82,62,38,30.34,30.22,5,1,5,0.00
2013-4-26,67,56,44,43,38,32,71,53,36,30.41,30.29,4,1,4,0.00
2013-4-27,56,54,53,53,48,43,88,81,64,30.34,30.11,2,0,2,0.27
2013-4-28,57,54,52,54,51,49,92,90,87,30.15,29.93,6,1,6,1.18
2013-4-29,71,58,53,58,53,51,92,84,65,30.04,29.97,3,0,3,0.00
2013-4-30,79,65,54,62,56,50,88,72,48,30.10,29.98,4,0,4,0.00
2013-5-1,75,66,58,60,54,51,79,67,55,30.23,30.10,3,1,4,0.00
2013-5-2,75,65,58,60,53,49,77,66,56,30.22,30.13,4,1,4,0.00
2013-5-3,72,63,56,56,51,47,79,66,49,30.16,30.02,8,1,8,0.00
2013-5-4,64,57,53,52,47,40,88,69,59,30.03,29.93,7,1,7,0.58
2013-5-5,56,52,50,53,50,47,91,90,87,29.94,29.80,3,0,3,0.72
2013-5-6,63,54,49,55,49,46,93,86,71,29.93,29.79,4,1,4,0.15
2013-5-7,65,56,48,56,50,45,90,81,69,29.99,29.89,3,0,3,0.23
2013-5-8,68,60,54,61,56,52,93,86,75,30.08,29.94,4,1,4,0.01
2013-5-9,76,65,55,63,57,52,92,78,56,30.13,30.03,4,0,4,0.02
2013-5-10,72,66,60,63,58,54,83,75,70,30.10,29.96,5,1,5,0.00
2013-5-11,69,63,55,64,58,50,90,83,75,30.00,29.88,6,1,6,0.29
2013-5-12,63,55,50,50,43,34,87,66,41,30.13,29.98,5,1,5,0.00
2013-5-13,64,53,43,40,37,34,74,55,37,30.23,30.13,5,1,5,0.00
2013-5-14,75,60,47,55,45,35,73,58,48,30.24,30.04,6,1,6,0.00
2013-5-15,83,72,62,62,57,53,74,61,47,30.16,30.00,5,1,5,0.00
2013-5-16,77,70,63,62,57,52,72,64,56,30.09,30.00,3,0,3,0.00
2013-5-17,79,69,61,64,60,55,84,73,58,30.12,30.04,3,0,3,0.00
2013-5-18,70,66,63,66,62,58,91,86,74,30.11,30.04,2,0,2,0.23
2013-5-19,74,68,64,70,64,62,93,89,84,30.09,30.02,3,0,3,0.00
2013-5-20,81,70,63,70,64,60,92,82,67,30.15,30.02,3,0,3,0.00
2013-5-21,85,72,64,73,65,60,88,79,60,30.08,29.94,7,0,7,0.33
2013-5-22,80,67,61,70,63,58,91,85,66,30.00,29.87,9,0,9,0.48
2013-5-23,76,66,61,66,62,56,93,85,67,30.03,29.90,4,1,4,0.17
2013-5-24,69,60,55,56,50,44,87,70,49,30.28,30.02,5,1,5,0.00
2013-5-25,71,60,48,53,46,41,83,62,46,30.35,30.19,4,0,4,0.00
2013-5-26,75,64,55,54,50,44,76,60,46,30.30,30.20,3,0,3,0.00
2013-5-27,81,69,57,63,56,49,78,64,52,30.24,30.11,3,0,3,0.00
2013-5-28,84,73,64,65,61,56,80,65,51,30.21,30.10,4,0,4,0.00
2013-5-29,86,74,65,69,62,56,79,66,52,30.24,30.12,3,0,3,0.00
2013-5-30,86,74,63,66,62,56,81,65,51,30.26,30.12,3,0,3,0.00
2013-5-31,87,75,66,68,62,58,79,64,50,30.20,30.08,5,0,5,0.00
2013-6-1,87,77,70,67,63,60,81,64,48,30.11,29.97,4,1,4,0.03
2013-6-2,72,69,66,68,65,63,92,88,82,30.02,29.91,4,0,4,0.91
2013-6-3,78,69,64,67,64,59,94,83,65,30.03,29.93,3,0,3,0.00
2013-6-4,83,71,62,65,61,57,87,72,53,30.08,30.01,4,0,4,0.00
2013-6-5,84,71,66,72,64,60,90,79,64,30.09,29.94,4,0,4,0.85
2013-6-6,77,70,64,70,66,61,93,86,77,29.97,29.80,3,0,3,0.00
2013-6-7,81,72,68,70,66,64,93,84,66,29.89,29.75,3,0,3,0.34
2013-6-8,80,70,63,69,64,60,92,82,67,30.11,29.89,3,0,3,0.12
2013-6-9,81,71,67,71,65,62,93,83,70,30.14,30.02,2,0,2,1.47
2013-6-10,77,70,67,68,66,64,94,87,69,30.03,29.90,6,1,6,0.22
2013-6-11,84,72,64,70,66,62,93,81,62,30.08,29.97,3,0,3,0.00
2013-6-12,88,78,70,77,70,64,86,78,67,30.08,29.95,3,1,3,0.00
2013-6-13,82,75,66,75,69,61,87,83,77,29.97,29.78,6,1,6,0.13
2013-6-14,82,67,61,63,60,57,88,78,52,30.09,29.92,2,0,2,0.00
2013-6-15,85,74,61,68,62,56,85,68,55,30.17,30.07,3,0,3,0.00
2013-6-16,82,74,67,69,65,61,84,73,64,30.15,30.04,4,0,4,0.12
2013-6-17,81,72,68,73,68,65,91,86,75,30.10,29.97,3,0,3,0.07
2013-6-18,74,69,66,69,66,63,93,89,84,30.01,29.88,3,0,3,0.24
2013-6-19,82,71,63,68,64,60,93,81,62,30.12,29.98,2,0,2,0.00
2013-6-20,85,74,65,72,66,61,89,78,63,30.22,30.11,3,0,3,0.00
2013-6-21,85,74,69,71,67,64,85,77,63,30.28,30.18,3,0,3,0.00
2013-6-23,86,79,72,72,67,64,77,67,60,30.19,30.13,2,0,2,0.00
2013-6-24,85,76,69,73,68,64,88,78,66,30.26,30.11,3,0,3,0.07
2013-6-25,83,75,71,74,69,66,89,82,74,30.19,30.06,3,0,3,0.03
2013-6-26,83,75,71,74,69,67,90,83,67,30.09,29.93,5,0,5,0.00
2013-6-27,80,72,66,76,69,63,94,90,82,29.96,29.83,5,1,5,0.29
2013-6-28,79,72,69,74,69,66,94,91,82,29.89,29.72,4,0,4,0.11
2013-6-29,82,73,65,70,66,62,93,80,61,29.76,29.70,3,0,3,0.00
2013-6-30,84,74,67,69,64,60,85,72,53,29.85,29.73,3,0,3,0.33
2013-7-1,79,70,66,70,66,63,92,87,72,29.95,29.82,4,0,4,0.04
2013-7-2,78,70,66,71,66,63,92,88,77,30.10,29.94,2,0,2,0.13
2013-7-3,74,70,65,70,67,63,93,91,88,30.20,30.09,2,0,2,0.22
2013-7-4,76,69,65,74,67,63,94,93,91,30.21,30.13,2,0,2,0.27
2013-7-5,79,71,68,74,69,66,94,91,81,30.22,30.14,3,0,3,0.00
2013-7-6,81,71,68,74,69,65,95,91,80,30.21,30.09,6,0,7,0.25
2013-7-7,72,68,67,69,66,65,94,94,91,30.21,30.12,2,0,2,1.30
2013-7-8,83,73,67,72,68,65,94,86,68,30.25,30.15,2,0,3,0.00
2013-7-9,87,76,68,75,70,65,91,83,66,30.21,30.09,2,0,2,0.00
2013-7-10,85,75,70,76,71,66,93,87,71,30.13,29.98,7,0,7,0.55
2013-7-11,83,74,70,75,70,68,94,88,76,30.03,29.93,2,0,2,0.00
2013-7-12,83,74,68,71,66,63,90,78,61,30.03,29.95,3,0,3,0.00
2013-7-13,83,74,66,71,66,61,86,76,66,30.13,29.99,3,0,3,0.00
2013-7-14,82,75,70,73,68,64,88,80,72,30.27,30.11,4,1,4,0.00
2013-7-15,87,77,70,74,69,64,86,76,63,30.34,30.26,3,0,3,0.00
2013-7-16,90,79,70,74,69,64,86,73,55,30.38,30.28,4,0,4,0.00
2013-7-17,86,78,71,75,71,67,89,80,68,30.34,30.22,4,0,4,0.08
2013-7-18,87,76,69,78,71,66,92,85,72,30.28,30.11,2,0,2,0.00
2013-7-19,87,78,71,77,72,67,90,82,70,30.16,30.02,0,0,0,0.00
2013-7-20,85,77,71,76,71,66,89,82,72,30.08,29.97,4,0,5,0.00
2013-7-21,81,73,70,73,69,67,91,87,77,30.06,29.98,5,0,5,0.34
2013-7-22,78,72,70,73,69,67,94,90,81,30.04,29.87,7,1,7,0.33
2013-7-23,80,72,69,74,69,66,95,91,81,29.98,29.86,6,1,6,0.23
2013-7-24,80,74,70,74,70,66,95,88,74,29.94,29.85,2,0,2,0.00
2013-7-25,83,73,67,68,65,61,89,78,59,30.09,29.93,3,0,3,0.00
2013-7-26,84,71,62,72,64,58,90,80,67,30.12,30.03,6,0,6,0.33
2013-7-27,77,72,68,72,67,65,93,87,75,30.05,29.93,2,0,2,0.01
2013-7-28,79,71,67,69,66,59,92,82,70,30.10,29.94,3,0,3,0.06
2013-7-29,80,69,61,63,60,57,87,72,55,30.23,30.09,3,0,3,0.00
2013-7-30,73,68,60,66,62,56,87,81,74,30.26,30.17,2,0,2,0.00
2013-7-31,73,68,64,70,65,60,93,89,81,30.21,30.01,2,0,2,0.23
2013-8-1,82,74,70,72,69,66,94,85,71,30.03,29.97,3,0,3,0.01
2013-8-2,82,73,67,69,66,63,91,79,59,30.09,30.01,3,0,3,0.00
2013-8-3,80,74,68,71,67,63,88,81,74,30.08,30.02,3,0,3,0.00
2013-8-4,80,74,70,70,67,61,91,78,63,30.11,30.03,3,0,3,0.00
2013-8-5,82,72,64,67,64,59,87,74,58,30.11,30.00,3,0,3,0.00
2013-8-6,84,75,69,73,67,63,86,77,70,30.06,29.99,2,0,2,0.00
2013-8-7,80,76,73,75,71,69,91,86,81,30.08,29.99,2,0,2,0.09
2013-8-8,79,75,72,75,71,68,92,88,85,30.09,30.01,2,0,2,0.08
2013-8-9,84,76,70,76,71,67,92,86,76,30.11,30.03,4,0,4,0.02
2013-8-10,84,74,71,76,71,68,94,89,75,30.16,30.10,6,0,6,0.18
2013-8-11,83,74,70,76,70,67,94,90,78,30.20,30.10,4,0,4,0.00
2013-8-12,80,74,70,75,71,67,94,89,82,30.16,30.01,3,0,3,0.00
2013-8-13,77,74,70,74,70,66,93,89,84,30.03,29.91,6,1,6,0.37
2013-8-14,75,69,63,66,62,56,88,78,61,30.11,29.98,5,0,5,0.01
2013-8-15,78,67,59,67,60,54,83,78,67,30.12,30.05,3,0,3,0.00
2013-8-16,79,70,63,67,62,57,84,76,64,30.14,30.06,3,0,3,0.00
2013-8-17,72,68,63,65,61,57,90,81,77,30.18,30.11,2,0,2,0.10
2013-8-18,76,69,66,70,65,63,92,88,75,30.22,30.13,4,0,4,0.04
2013-8-19,76,73,69,70,69,67,93,87,81,30.18,30.10,3,0,3,0.04
2013-8-20,80,73,66,72,68,63,93,86,77,30.21,30.12,2,0,2,0.00
2013-8-21,79,73,70,72,69,66,92,89,79,30.25,30.16,3,0,3,0.14
2013-8-22,82,74,68,74,69,66,94,86,73,30.21,30.08,2,0,2,0.01
2013-8-23,80,72,68,74,69,65,93,88,74,30.13,30.06,6,0,6,0.07
2013-8-24,81,72,65,71,65,60,94,82,61,30.28,30.13,3,0,3,0.00
2013-8-25,80,71,63,66,61,57,84,71,54,30.39,30.28,3,0,3,0.00
2013-8-26,81,71,62,69,62,56,86,76,62,30.35,30.17,4,0,4,0.00
2013-8-27,81,73,66,72,67,62,88,81,73,30.19,30.08,2,0,2,0.00
2013-8-28,83,76,70,74,70,66,89,81,71,30.11,30.02,3,0,3,0.00
2013-8-29,84,78,73,76,71,69,89,81,70,30.06,29.98,4,0,4,0.00
2013-8-30,86,77,69,74,70,66,90,79,65,30.06,29.95,3,0,3,0.00
2013-8-31,85,77,71,76,72,66,93,84,73,30.02,29.89,4,0,4,0.19
2013-9-1,80,73,69,74,69,66,92,86,73,29.95,29.87,4,0,4,0.23
2013-9-2,78,73,69,73,69,66,93,88,85,29.99,29.89,2,0,2,0.00
2013-9-3,80,71,66,72,67,63,94,86,72,30.06,29.91,4,0,4,1.04
2013-9-4,80,71,63,68,64,59,91,79,66,30.16,30.05,3,0,3,0.00
2013-9-5,78,70,62,67,63,58,90,79,68,30.20,30.14,2,0,2,0.00
2013-9-6,81,72,63,68,64,59,90,76,58,30.21,30.10,3,0,3,0.00
2013-9-7,80,72,63,69,64,59,89,78,67,30.16,30.03,3,0,3,0.00
2013-9-8,81,74,68,71,67,64,88,78,66,30.06,30.00,3,0,3,0.00
2013-9-9,85,75,68,74,68,64,89,79,67,30.15,30.05,2,0,2,0.00
2013-9-10,86,77,70,73,69,65,87,76,63,30.26,30.15,3,0,3,0.00
2013-9-11,84,76,71,74,69,66,87,79,68,30.26,30.14,4,0,4,0.00
2013-9-12,81,73,67,74,68,64,91,86,78,30.14,29.94,5,0,5,0.11
2013-9-13,73,67,60,65,60,51,94,79,60,30.02,29.93,4,0,4,0.00
2013-9-14,74,62,53,58,52,47,84,70,53,30.11,30.01,3,0,4,0.00
2013-9-15,78,66,55,65,57,50,87,74,61,30.20,30.11,3,0,3,0.00
2013-9-16,76,68,63,66,61,58,88,80,69,30.21,30.13,2,0,2,0.00
2013-9-17,77,68,60,66,60,55,83,77,66,30.25,30.16,2,0,2,0.00
2013-9-18,67,64,61,62,59,55,87,82,76,30.25,30.16,1,0,1,0.00
2013-9-19,78,69,62,69,63,59,91,83,73,30.21,30.09,2,0,2,0.00
2013-9-20,78,72,66,68,65,62,89,80,68,30.11,29.93,2,0,2,0.00
2013-9-21,72,66,60,64,62,58,92,89,78,29.93,29.79,3,0,3,0.73
2013-9-22,70,60,56,60,56,54,93,85,66,29.97,29.85,1,0,1,0.00
2013-9-23,73,63,53,62,56,49,89,79,67,30.05,29.96,2,0,2,0.00
2013-9-24,75,67,59,64,60,55,89,79,66,30.08,29.93,1,0,1,0.00
2013-9-25,68,66,63,65,62,60,92,89,84,29.94,29.87,0,0,0,0.22
2013-9-26,73,67,62,64,61,56,93,81,71,30.06,29.91,2,0,2,0.00
2013-9-27,68,60,57,62,56,54,91,87,81,30.18,30.06,0,0,0,0.00
2013-9-28,73,69,64,62,60,57,79,73,68,30.22,30.12,1,0,1,0.00
2013-9-29,69,64,57,61,58,53,87,81,75,30.16,30.04,2,0,2,0.00
2013-9-30,72,65,59,62,59,56,91,81,67,30.11,30.02,2,0,2,0.00
2013-10-1,73,66,60,64,60,56,90,80,68,30.18,30.08,2,0,2,0.00
2013-10-2,76,68,60,67,62,56,88,81,71,30.21,30.10,2,0,2,0.00
2013-10-3,77,69,63,67,63,59,89,81,70,30.18,30.08,3,0,3,0.00
2013-10-4,78,70,63,67,63,59,90,79,67,30.20,30.12,2,0,2,0.00
2013-10-5,80,71,63,69,64,59,88,78,67,30.18,30.04,2,0,2,0.00
2013-10-6,80,72,64,68,63,59,89,75,59,30.05,29.85,4,0,4,0.04
2013-10-7,68,59,55,63,53,48,91,80,62,30.11,29.86,3,0,3,0.13
2013-10-8,69,58,50,54,49,45,84,72,58,30.16,30.09,3,0,3,0.00
2013-10-9,71,61,52,58,52,46,82,72,61,30.23,30.13,3,0,3,0.00
2013-10-10,70,61,52,55,52,46,82,71,56,30.18,30.06,0,0,0,0.00
2013-10-11,73,64,54,60,55,50,87,74,61,30.11,30.01,0,0,0,0.00
2013-10-12,74,65,57,62,57,52,87,76,63,30.14,30.03,2,0,3,0.00
2013-10-13,72,67,64,64,61,58,88,83,74,30.24,30.14,2,0,2,0.00
2013-10-14,74,67,61,64,60,58,90,80,67,30.26,30.13,3,0,3,0.00
2013-10-15,72,65,60,62,58,54,84,79,71,30.16,30.04,2,0,2,0.00
2013-10-16,69,64,60,61,58,56,86,82,76,30.08,29.99,3,0,3,0.00
2013-10-17,65,61,55,63,58,51,94,89,84,30.03,29.87,3,0,3,0.27
2013-10-18,60,55,50,51,49,46,89,81,66,30.08,29.98,2,0,2,0.00
2013-10-19,60,54,49,52,49,43,88,83,73,30.03,29.91,5,0,5,0.00
2013-10-20,58,50,41,46,42,37,88,74,53,30.11,30.03,3,0,3,0.00
2013-10-21,64,53,42,51,44,38,85,72,57,30.12,30.00,3,0,3,0.00
2013-10-22,62,57,52,52,49,46,84,76,69,30.02,29.86,4,0,4,0.00
2013-10-23,52,47,40,48,40,32,88,78,68,30.09,29.79,5,1,5,0.00
2013-10-24,50,44,37,39,36,32,85,76,66,30.24,30.08,4,1,4,0.00
2013-10-25,47,40,34,34,30,27,79,68,54,30.42,30.24,3,0,4,0.00
2013-10-26,54,43,30,36,31,25,83,64,46,30.32,30.08,4,1,4,0.00
2013-10-27,62,55,50,49,42,34,76,62,51,30.14,30.08,4,1,4,0.00
2013-10-28,63,58,53,56,52,48,89,81,72,30.28,30.12,3,0,3,0.03
2013-10-29,68,60,55,57,53,51,88,77,60,30.34,30.23,3,0,3,0.00
2013-10-30,74,65,59,60,55,51,85,71,58,30.28,30.15,4,1,4,0.00
2013-10-31,71,65,59,59,56,53,81,73,60,30.15,29.70,5,1,5,0.00
2013-11-1,70,63,56,61,55,46,92,75,58,29.82,29.68,6,2,6,0.20
2013-11-2,59,53,48,47,42,38,82,67,50,30.08,29.80,5,1,5,0.00
2013-11-3,55,48,42,41,38,34,82,69,54,30.30,30.08,4,0,4,0.00
2013-11-4,62,50,42,42,37,33,73,60,46,30.40,30.30,4,0,4,0.00
2013-11-5,55,53,50,36,33,30,57,46,42,30.39,30.31,2,1,2,0.00
2013-11-6,72,60,49,55,48,34,78,64,50,30.32,30.07,3,1,3,0.00
2013-11-7,62,51,41,54,43,32,90,75,62,30.26,30.03,4,1,4,0.35
2013-11-8,53,43,36,32,30,28,76,60,43,30.37,30.26,6,0,6,0.00
2013-11-9,54,44,36,36,31,26,71,60,49,30.30,30.20,2,1,2,0.00
2013-11-10,64,53,44,44,35,27,70,52,39,30.30,30.22,5,1,5,0.00
2013-11-11,62,49,38,36,29,25,66,47,31,30.31,30.15,4,0,4,0.00
2013-11-12,52,40,28,39,28,17,74,61,45,30.52,30.11,8,1,8,0.02
2013-11-13,45,33,25,26,20,16,73,59,45,30.60,30.43,5,0,5,0.00
2013-11-14,57,39,28,30,23,18,70,54,33,30.45,30.26,4,0,4,0.00
2013-11-15,48,42,34,40,30,22,85,64,49,30.28,30.15,4,0,4,0.03
2013-11-16,67,54,43,56,48,39,89,82,68,30.22,30.09,4,0,4,0.00
2013-11-17,64,56,51,58,51,47,89,85,76,30.11,29.92,3,1,3,0.05
2013-11-20,59,49,38,36,30,27,66,50,39,30.30,30.17,5,1,7,0.00
2013-11-21,70,53,40,51,40,28,76,64,51,30.36,30.24,6,1,6,0.00
2013-11-22,55,53,52,51,46,44,91,78,73,30.30,30.20,3,0,3,0.09
2013-11-23,53,44,31,50,37,20,90,77,59,30.36,30.18,7,2,7,0.00
2013-11-24,38,29,23,21,15,10,67,55,41,30.54,30.35,6,1,6,0.00
2013-11-25,36,31,23,27,17,10,76,56,50,30.43,30.16,2,0,2,0.04
2013-11-26,45,39,34,42,36,27,92,87,76,30.17,29.72,5,1,5,1.24
2013-11-27,37,31,25,34,27,19,91,85,77,30.26,29.77,3,0,3,0.02
2013-11-28,42,30,22,31,22,17,84,75,63,30.45,30.25,4,0,4,0.02
2013-11-29,51,36,27,35,27,22,85,70,50,30.55,30.44,5,0,5,0.00
2013-11-30,54,40,32,36,29,24,74,65,48,30.48,30.27,4,0,4,0.00
2013-12-1,56,43,32,39,32,25,77,66,52,30.28,30.00,5,1,5,0.00
2013-12-2,48,46,44,41,39,35,81,76,67,30.00,29.82,2,0,2,0.00
2013-12-3,58,50,45,50,45,40,87,81,73,29.90,29.83,4,0,4,0.00
2013-12-4,70,58,50,57,51,45,86,77,62,29.99,29.89,5,1,5,0.00
2013-12-5,71,63,56,62,57,50,90,79,70,30.04,29.94,8,2,8,0.04
2013-12-6,63,51,40,60,48,37,93,91,88,30.16,29.89,8,1,8,1.02
2013-12-7,40,38,35,37,35,31,92,89,86,30.39,30.14,6,1,6,0.00
2013-12-8,44,41,35,42,39,31,92,90,86,30.32,30.06,4,0,4,0.34
2013-12-9,49,45,41,47,43,39,94,93,91,30.13,29.99,3,1,3,0.31
2013-12-10,42,36,30,40,32,24,93,85,69,30.33,29.96,8,1,8,0.29
2013-12-11,47,34,26,34,26,22,87,73,50,30.41,30.29,5,1,5,0.00
2013-12-12,41,31,25,25,20,16,76,64,47,30.47,30.34,5,1,5,0.00
2013-12-13,51,35,25,30,22,16,72,59,43,30.36,30.08,5,1,5,0.00
2013-12-14,47,43,39,45,36,25,93,77,56,30.14,29.77,7,1,7,0.31
2013-12-15,45,35,31,43,31,26,92,85,80,30.15,29.79,7,2,7,0.01
2013-12-16,48,37,29,37,30,25,89,77,58,30.19,30.06,8,2,8,0.00
2013-12-17,54,44,36,38,32,25,73,63,52,30.18,29.95,10,4,10,0.00
2013-12-18,47,37,29,26,23,20,73,58,39,30.30,30.18,7,1,7,0.00
2013-12-19,57,41,29,35,26,19,67,54,41,30.28,30.12,4,1,4,0.00
2013-12-20,58,48,38,40,33,26,68,58,49,30.16,30.05,4,1,4,0.00
2013-12-21,71,60,49,60,49,38,73,67,62,30.05,29.82,8,2,8,0.00
2013-12-22,71,59,54,61,55,52,92,87,70,30.06,29.82,11,2,11,1.18
2013-12-23,54,43,34,52,40,30,93,88,84,30.29,30.00,6,2,6,0.07
2013-12-24,37,31,24,30,23,16,84,72,56,30.41,30.27,6,2,6,0.00
2013-12-25,47,30,20,32,21,14,78,68,55,30.40,30.26,4,0,4,0.00
2013-12-26,49,37,29,33,26,22,77,65,49,30.34,30.25,5,1,5,0.00
2013-12-27,54,38,29,36,26,21,77,62,42,30.43,30.30,4,1,4,0.00
2013-12-28,45,38,31,36,29,22,86,70,58,30.36,29.96,5,0,5,0.25
2013-12-29,45,43,40,43,40,36,93,90,87,30.01,29.80,7,2,7,0.52
2013-12-30,41,37,34,39,34,30,92,86,81,30.18,30.00,3,1,4,0.00
2013-12-31,44,34,28,32,27,24,90,77,60,30.39,30.16,6,1,6,0.00
2014-1-1,49,35,27,34,26,22,83,71,51,30.30,30.05,4,0,4,0.00
2014-1-2,38,33,20,36,28,14,92,81,70,30.08,29.72,11,2,11,0.26